[[{"header":{"parameterUnit":"m.s-1","parameterCategory":1,"la1":30.2991,"la2":30.254,"lo1":-89.0895,"lo2":-89.0444,"dy":0.0017,"dx":0.0017,"nx":28,"ny":28,"refTime":"2025-07-13T09:00:00:Z","depth":0,"parameterNumber":2,"parameterNumberName":"U-component_of_WINDS"},"data":[0,0,0,0,0,0,0,0,0,0,0,0,0,0,0,0,0,0,0,0,0,0,0,0,0,0,0,0,0,0,0,0,0,0,0,0,0,0,0,0,0,0,0,0,0,0,0,0,0,0,0,0,0,0,0,0,0,0,2.6225,2.6225,0,2.6238,2.6238,2.6238,2.6168,2.6166,2.6164,2.6162,2.6175,2.6177,2.618,0,0,0,0,0,0,0,0,0,0,0,0,0,2.6138,2.614,2.6225,2.6225,2.6225,2.6238,2.6238,2.6238,2.6168,2.6166,2.6163,2.6161,2.6174,2.6177,2.618,0,0,0,0,0,0,0,0,0,0,0,0,0,2.6166,2.6141,2.6225,2.6192,2.6189,2.6238,2.6238,2.6238,2.6169,2.6166,2.6163,2.616,2.6174,2.6177,2.618,2.6261,0,0,2.619,2.6192,0,0,0,0,0,0,0,0,2.6164,2.6169,2.6197,2.6194,2.6191,2.6198,2.6212,2.6246,2.617,2.6177,2.6162,2.6159,2.6185,2.6187,2.6196,2.6262,2.6262,2.6191,2.6193,2.6194,2.6195,0,0,0,0,0,0,0,2.6163,2.6168,2.623,2.6197,2.6194,2.6176,2.6177,2.6218,2.6198,2.6176,2.6171,2.6173,2.6183,2.6193,2.6196,2.6262,2.619,2.6193,2.6195,2.6197,2.6391,2.6394,0,0,0,0,0,0,2.6165,2.6167,2.6229,2.623,2.617,2.618,2.6181,2.6199,2.6197,2.6194,2.6176,2.617,2.6189,2.6192,2.6196,2.6287,2.6194,2.6197,2.6199,2.6388,2.6391,2.6395,0,0,0,0,0,0,2.6164,2.6171,2.6229,2.6197,2.6203,2.6185,2.6206,2.6201,2.6211,2.6197,2.6193,2.619,2.6187,2.6192,2.6245,2.6287,2.6199,2.6202,2.6384,2.6389,2.6393,2.6473,0,0,0,0,0,0,2.6161,2.6171,2.6202,2.6199,2.6205,2.6278,2.6209,2.6203,2.6217,2.6209,2.6209,2.6206,2.6185,2.624,2.6248,2.629,2.6204,2.638,2.6386,2.6392,2.6466,2.6479,2.6491,0,0,0,0,0,2.6159,2.6225,2.6204,2.6212,2.6244,2.628,2.6284,2.6258,2.6221,2.6251,2.6242,2.6206,2.6282,2.6246,2.6254,2.6298,2.6377,2.6384,2.6391,2.646,2.6477,2.6491,0,0,0,0,0,0,2.6235,2.6224,2.6201,2.6268,2.6275,2.6268,2.6306,2.6277,2.6295,2.6287,2.6254,2.6255,2.6312,2.6311,2.6271,2.6375,2.6323,2.6332,2.6373,2.6388,2.64,2.6398,2.6207,0,0,0,0,0,2.6259,2.629,2.6279,2.634,2.6344,2.6325,2.634,2.6319,2.6325,2.6328,2.6323,2.633,2.6355,2.6372,2.6395,2.6467,2.6464,2.6501,2.6513,2.6524,2.6531,2.6565,2.658,2.6418,2.6418,2.6418,0,0,2.631,2.6308,2.633,2.6355,2.6358,2.6389,2.6328,2.6365,2.6387,2.6334,2.6382,2.6379,2.6385,2.6446,2.6473,2.6447,2.6575,2.6533,2.6541,2.6542,2.6574,2.6589,2.6603,2.6423,2.6422,2.6421,0,0,2.6418,2.6421,2.647,2.6474,2.648,2.6466,2.6478,2.6475,2.647,2.6518,2.6478,2.6505,2.655,2.6554,2.6563,2.6671,2.6638,2.668,2.6744,2.6778,2.679,2.6801,2.6836,2.685,2.6688,2.6688,2.6688,0,2.648,2.6526,2.6499,2.6537,2.6548,2.6501,2.6549,2.6555,2.6568,2.6576,2.6547,2.66,2.6601,2.6661,2.6687,2.6698,2.6708,2.6678,2.6791,2.6802,2.6811,2.6844,2.6858,2.6693,2.6692,2.6692,2.6691,0,2.66,2.6633,2.6672,2.6684,2.6699,2.6743,2.6721,2.674,2.6718,2.6707,2.6756,2.6756,2.6776,2.6789,2.6769,2.6846,2.6829,2.6797,2.6743,2.6832,2.6862,2.6875,2.67,2.6698,2.6696,2.6695,0,0,2.6755,2.675,2.6765,2.6768,2.677,2.6795,2.6836,2.6855,2.687,2.6881,2.6912,2.6951,2.6919,2.6929,2.6909,2.694,2.7021,2.6902,2.6902,2.6921,2.7102,2.7124,2.7139,2.7001,2.7003,2.7005,2.71,0,2.6857,2.6924,2.69,2.6969,2.6997,2.6953,2.6988,2.6993,2.6984,2.7006,2.6997,2.7023,2.6982,2.6986,2.7015,2.7005,2.7056,2.6999,2.7027,2.7028,2.7022,2.7155,2.7179,2.7268,2.7112,2.7114,2.7116,0,2.6984,2.6998,2.707,2.7065,2.7075,2.7107,2.7121,2.7144,2.7148,2.7139,2.715,2.7123,2.7161,2.7111,2.7161,2.7122,2.7133,2.713,2.7133,2.7131,2.7074,2.7153,2.7297,2.7309,2.7135,2.7133,2.7132,0,2.7084,2.7122,2.7168,2.7173,2.717,2.7192,2.7192,2.7193,2.7206,2.7219,2.7226,2.7244,2.7253,2.7267,2.7245,2.7211,2.7298,2.7246,2.7289,2.729,2.7306,2.7305,2.7449,2.7321,2.732,2.732,2.732,0,2.7198,2.7242,2.7212,2.724,2.7288,2.7261,2.7309,2.7304,2.7305,2.733,2.7296,2.732,2.7292,2.7314,2.7298,2.734,2.7346,2.7338,2.7332,2.7339,2.7339,2.7342,2.7334,2.7324,2.7323,2.7322,2.7321,0,2.7316,2.7298,2.7345,2.7338,2.7337,2.7372,2.7365,2.739,2.7379,2.7412,2.7418,2.7401,2.7425,2.7405,2.7429,2.7418,2.7473,2.7461,2.7471,2.7466,2.7508,2.7503,2.7656,2.7674,2.7538,2.7539,2.7541,0,2.7387,2.742,2.7416,2.743,2.7431,2.7456,2.7467,2.7442,2.7455,2.7462,2.7486,2.7507,2.7521,2.7562,2.755,2.7568,2.7553,2.7606,2.7555,2.756,2.7549,2.7546,2.7547,2.7615,2.7616,2.7618,2.7619,0,2.7515,2.7504,2.7522,2.7537,2.7552,2.7563,2.7571,2.7585,2.7558,2.7576,2.7599,2.7611,2.7634,2.7654,2.7668,2.7667,2.7638,2.7636,2.7645,2.765,2.7653,2.7648,2.7494,2.7631,2.763,2.7629,2.7628,2.7628,2.7609,2.7634,2.7634,2.7655,2.7659,2.7667,2.7689,2.768,2.7699,2.7715,2.77,2.7727,2.7729,2.7744,2.7747,2.7768,2.7746,2.7761,2.7764,2.7768,2.7772,2.7653,2.7771,2.777,2.777,2.777,2.7769,0,2.7731,2.7728,2.7748,2.7759,2.7775,2.7748,2.7755,2.777,2.7794,2.7799,2.7814,2.7839,2.7859,2.785,2.7866,2.7884,2.7871,2.7889,2.7885,2.7885,2.7793,2.778,2.7899,2.7899,2.7899,2.7899,2.7899,2.7899,2.7796,2.7836,2.7825,2.7867,2.7865,2.789,2.7896,2.7903,2.7906,2.7936,2.7951,2.7945,2.7943,2.7959,2.7975,2.7972,2.7978,2.8,2.7991,2.7905,2.7892,2.7879,2.7867,2.8002,2.8003,2.8081,2.8082,2.8082]},{"header":{"parameterUnit":"m.s-1","parameterCategory":1,"la1":30.2991,"la2":30.254,"lo1":-89.0895,"lo2":-89.0444,"dy":0.0017,"dx":0.0017,"nx":28,"ny":28,"refTime":"2025-07-13T09:00:00:Z","depth":0,"parameterNumber":3,"parameterNumberName":"V-component_of_WINDS"},"data":[0,0,0,0,0,0,0,0,0,0,0,0,0,0,0,0,0,0,0,0,0,0,0,0,0,0,0,0,0,0,0,0,0,0,0,0,0,0,0,0,0,0,0,0,0,0,0,0,0,0,0,0,0,0,0,0,0,0,2.8355,2.8356,0,2.8465,2.8466,2.8467,2.8448,2.8446,2.8444,2.8442,2.8551,2.8556,2.8561,0,0,0,0,0,0,0,0,0,0,0,0,0,2.8123,2.8128,2.8355,2.8356,2.8358,2.8464,2.8466,2.8467,2.8448,2.8446,2.8444,2.8442,2.855,2.8555,2.8561,0,0,0,0,0,0,0,0,0,0,0,0,0,2.8227,2.8129,2.8354,2.8361,2.8363,2.8464,2.8466,2.8468,2.8449,2.8446,2.8443,2.8441,2.8548,2.8555,2.8562,2.8663,0,0,2.8583,2.8586,0,0,0,0,0,0,0,0,2.8222,2.8236,2.8359,2.8361,2.8363,2.844,2.8424,2.8533,2.845,2.8416,2.8442,2.8439,2.8516,2.8526,2.8553,2.8668,2.8673,2.8584,2.8588,2.8591,2.8593,0,0,0,0,0,0,0,2.8214,2.8231,2.8398,2.836,2.8363,2.8357,2.8368,2.8445,2.8481,2.8419,2.8418,2.8431,2.8517,2.8546,2.8555,2.8674,2.8584,2.859,2.8594,2.8597,2.8874,2.8877,0,0,0,0,0,0,2.8206,2.8225,2.8395,2.8401,2.8284,2.8363,2.8376,2.8418,2.848,2.8487,2.8433,2.843,2.8535,2.8547,2.8559,2.8679,2.8591,2.8598,2.8602,2.8871,2.8875,2.8878,0,0,0,0,0,0,2.8201,2.8221,2.839,2.8313,2.8334,2.837,2.8417,2.8422,2.8451,2.8491,2.8497,2.8457,2.8534,2.8549,2.8637,2.8682,2.8601,2.8607,2.8867,2.8872,2.8876,2.8921,0,0,0,0,0,0,2.8194,2.822,2.826,2.8314,2.8338,2.8468,2.842,2.8426,2.8463,2.846,2.8515,2.8521,2.8532,2.8626,2.8644,2.8691,2.8613,2.8863,2.8869,2.8875,2.8916,2.8927,2.8936,0,0,0,0,0,2.8186,2.8268,2.8262,2.8282,2.839,2.8471,2.8484,2.8497,2.8467,2.8507,2.8532,2.8519,2.8675,2.8635,2.8655,2.8705,2.886,2.8868,2.8874,2.8911,2.8924,2.8936,0,0,0,0,0,0,2.8217,2.8275,2.8269,2.8371,2.8416,2.8467,2.8518,2.8511,2.8565,2.8559,2.8571,2.8584,2.8672,2.8697,2.8652,2.8804,2.8763,2.8774,2.8784,2.8797,2.8807,2.8799,2.8619,0,0,0,0,0,2.8236,2.8299,2.8345,2.843,2.8453,2.8482,2.8518,2.8523,2.857,2.8588,2.8621,2.8665,2.8723,2.8762,2.8818,2.8919,2.8929,2.8963,2.8973,2.8981,2.899,2.9043,2.9057,2.8901,2.8901,2.8901,0,0,2.8275,2.8315,2.8353,2.8438,2.8473,2.8535,2.8498,2.8566,2.8612,2.8598,2.8683,2.8708,2.8758,2.8852,2.8895,2.8876,2.9036,2.899,2.8996,2.9001,2.9051,2.9066,2.9079,2.8906,2.8905,2.8904,0,0,2.8379,2.8416,2.849,2.8526,2.858,2.8598,2.8616,2.8668,2.8684,2.8769,2.8759,2.8813,2.8914,2.895,2.8981,2.9095,2.9084,2.9113,2.9166,2.9217,2.9229,2.924,2.9278,2.9292,2.9122,2.9122,2.9122,0,2.842,2.8515,2.8528,2.8597,2.8633,2.8624,2.8698,2.8732,2.8801,2.8825,2.8803,2.8929,2.8962,2.9063,2.909,2.9117,2.9135,2.9106,2.9227,2.9238,2.9248,2.9284,2.9299,2.9125,2.9125,2.9124,2.9124,0,2.8563,2.8628,2.8681,2.8749,2.8791,2.8862,2.8883,2.8924,2.8926,2.8945,2.903,2.907,2.9133,2.9157,2.9159,2.9257,2.9243,2.9224,2.9183,2.9266,2.93,2.9314,2.9129,2.9128,2.9127,2.9127,0,0,2.8689,2.8762,2.8781,2.881,2.8868,2.8919,2.8988,2.905,2.9083,2.9131,2.9188,2.9273,2.9254,2.929,2.9295,2.934,2.9425,2.9315,2.9316,2.9332,2.9532,2.9545,2.9562,2.9418,2.9421,2.9423,2.9527,0,2.8796,2.892,2.8932,2.9042,2.9101,2.9092,2.9152,2.9193,2.9212,2.9264,2.9285,2.9344,2.9317,2.9338,2.9382,2.9405,2.9465,2.9398,2.9468,2.9471,2.9455,2.958,2.9595,2.9691,2.9541,2.9543,2.9545,0,2.8938,2.899,2.9106,2.9153,2.9178,2.9232,2.9289,2.9339,2.9384,2.9395,2.9434,2.9433,2.9501,2.9458,2.9551,2.9506,2.9535,2.9551,2.9555,2.9561,2.9512,2.9588,2.9723,2.9737,2.9567,2.9565,2.9563,0,2.9016,2.9115,2.9196,2.9222,2.928,2.9317,2.9343,2.9385,2.9421,2.947,2.9493,2.9549,2.9579,2.9621,2.9635,2.9603,2.9726,2.9685,2.9735,2.9735,2.9761,2.9759,2.9901,2.9783,2.9783,2.9782,2.9782,0,2.9134,2.9204,2.9231,2.9281,2.9359,2.9371,2.9447,2.9471,2.9508,2.9561,2.9557,2.9606,2.9621,2.9672,2.9683,2.9757,2.9771,2.978,2.9781,2.9779,2.9778,2.9798,2.9791,2.9786,2.9785,2.9784,2.9784,0,2.9234,2.9255,2.9343,2.939,2.9404,2.9459,2.9498,2.9545,2.9563,2.9629,2.9646,2.9674,2.9733,2.9751,2.9823,2.9829,2.9916,2.9912,2.9901,2.99,2.9949,2.9943,3.0107,3.0129,2.9998,2.9999,3.0,0,2.9307,2.9361,2.9414,2.9449,2.9476,2.9533,2.9569,2.9583,2.962,2.9674,2.9714,2.9773,2.9821,2.9916,2.9942,2.9996,2.9992,3.0046,3.0,2.9996,2.9991,2.9987,2.9991,3.0054,3.0056,3.0057,3.0058,0,2.9433,2.9441,2.9494,2.955,2.9593,2.9638,2.9681,2.971,2.9729,2.9771,2.9832,2.9869,2.9942,3.0,3.0054,3.0078,3.007,3.0072,3.0086,3.0084,3.0074,3.0078,2.9922,3.0068,3.0067,3.0066,3.0066,3.0065,2.9521,2.9567,2.9611,2.967,2.9703,2.9743,2.9789,2.9812,2.9864,2.9924,2.9929,2.9994,3.0035,3.0108,3.0134,3.0184,3.0168,3.0189,3.0194,3.0199,3.0202,3.0067,3.0195,3.0194,3.0194,3.0194,3.0194,0,2.9645,2.9673,2.9726,2.9786,2.9831,2.9821,2.9868,2.9906,2.9964,3.0003,3.005,3.0119,3.0174,3.0204,3.0258,3.0292,3.029,3.0306,3.0303,3.0308,3.0214,3.0196,3.0307,3.0307,3.0307,3.0307,3.0307,3.0307,2.9715,2.9792,2.9805,2.9897,2.9924,2.9989,3.0016,3.0051,3.0083,3.016,3.0206,3.0225,3.026,3.0317,3.0366,3.0373,3.0392,3.041,3.0415,3.0327,3.0315,3.0304,3.0286,3.0415,3.0415,3.0504,3.0505,3.0506]}]]